Thedford, NE

5:30 AM CST on December 13, 2017 (GMT -0600)
Thedford

Weather History for KTIF - August, 2013

Change the Weather History Date:

Sunday, August 25, 2013

  Actual Average (KANW) Record (KANW)
Temperature  
Mean Temperature 85 °F -  
Max Temperature 98 °F 83 °F 94 °F (2013)
Min Temperature 72 °F 59 °F 46 °F (2010)
Cooling Degree Days 20    
Growing Degree Days 35 (Base 50)    
Moisture  
Dew Point 57 °F    
Average Humidity 40    
Maximum Humidity 64    
Minimum Humidity 19    
Precipitation  
Precipitation 0.00 in - - ()
Sea Level Pressure  
Sea Level Pressure 30.02 in    
Wind  
Wind Speed 15 mph (South)    
Max Wind Speed 23 mph    
Max Gust Speed 30 mph    
Visibility 10 miles    
Events      
Averages and records for this station are not official NWS values.
T = Trace of Precipitation, MM = Missing Value Source: NWS Daily Summary

Daily Weather History Graph

Daily Weather History Graph

Search for Another Location

Airport or City:

Trip Planner

Search our weather history database for the weather conditions in past years. The results will help you decide how hot, cold, wet, or windy it might be!

Date:

Astronomy

Aug. 25, 2013 Rise Set
Actual Time 7:00 AM CDT 8:26 PM CDT
Civil Twilight 6:31 AM CDT 8:55 PM CDT
Nautical Twilight 5:56 AM CDT 9:30 PM CDT
Astronomical Twilight 5:19 AM CDT 10:07 PM CDT
Moon 10:52 PM CDT (8/25) 12:10 PM CDT (8/25)
Length of Visible Light 14h 24m
Length of Day
13h 25m
Waning Gibbous, 75% of the Moon is Illuminated
Aug 25
Waning Gibbous
Aug 28
Last Quarter
Sep 5
New
Sep 12
First Quarter
Sep 19
Full

Hourly Weather History & Observations

Time (CDT) Temp. Heat Index Dew Point Humidity Pressure Visibility Wind Dir Wind Speed Gust Speed Precip Events Conditions
12:15 AM 82.2 °F 81.8 °F 56.7 °F 41% 29.99 in 10.0 mi South 16.1 mph 24.2 mph N/A   Clear
12:35 AM 81.0 °F 81.0 °F 57.2 °F 44% 29.99 in 10.0 mi South 15.0 mph 23.0 mph N/A   Clear
12:55 AM 80.6 °F 80.8 °F 57.7 °F 45% 30.00 in 10.0 mi South 20.7 mph - N/A   Clear
1:15 AM 81.0 °F 81.2 °F 58.1 °F 46% 30.00 in 10.0 mi South 19.6 mph 26.5 mph N/A   Clear
1:35 AM 80.4 °F 80.9 °F 58.5 °F 47% 30.01 in 10.0 mi South 17.3 mph 23.0 mph N/A   Clear
1:55 AM 80.2 °F 80.7 °F 58.5 °F 47% 30.01 in 10.0 mi South 18.4 mph 24.2 mph N/A   Clear
2:15 AM 79.9 °F - 58.6 °F 48% 30.01 in 10.0 mi South 17.3 mph 25.3 mph N/A   Clear
2:35 AM 79.7 °F - 59.0 °F 49% 30.01 in 10.0 mi South 17.3 mph 25.3 mph N/A   Clear
2:55 AM 79.7 °F - 58.8 °F 49% 30.01 in 10.0 mi South 19.6 mph 24.2 mph N/A   Clear
3:15 AM 79.2 °F - 58.6 °F 49% 30.01 in 10.0 mi South 15.0 mph 25.3 mph N/A   Clear
3:35 AM 78.8 °F - 59.0 °F 51% 30.01 in 10.0 mi South 15.0 mph 18.4 mph N/A   Clear
3:55 AM 78.1 °F - 59.0 °F 52% 30.01 in 10.0 mi South 12.7 mph - N/A   Clear
4:15 AM 77.2 °F - 59.2 °F 54% 30.01 in 10.0 mi South 13.8 mph 18.4 mph N/A   Clear
4:35 AM 76.6 °F - 59.2 °F 55% 30.01 in 10.0 mi South 13.8 mph 19.6 mph N/A   Clear
4:55 AM 76.3 °F - 59.2 °F 55% 30.01 in 10.0 mi South 15.0 mph 20.7 mph N/A   Clear
5:15 AM 75.7 °F - 59.2 °F 56% 30.01 in 10.0 mi South 16.1 mph 20.7 mph N/A   Clear
5:35 AM 75.4 °F - 59.2 °F 57% 30.00 in 10.0 mi South 15.0 mph - N/A   Clear
5:55 AM 75.2 °F - 59.4 °F 58% 30.00 in 10.0 mi South 15.0 mph - N/A   Clear
6:15 AM 74.3 °F - 59.4 °F 60% 30.01 in 10.0 mi South 11.5 mph - N/A   Clear
6:35 AM 73.8 °F - 59.4 °F 61% 30.01 in 10.0 mi South 12.7 mph 18.4 mph N/A   Clear
6:55 AM 72.9 °F - 59.4 °F 62% 30.02 in 10.0 mi South 11.5 mph - N/A   Clear
7:15 AM 72.5 °F - 59.4 °F 63% 30.03 in 10.0 mi South 9.2 mph - N/A   Clear
7:35 AM 72.5 °F - 59.5 °F 64% 30.04 in 10.0 mi South 4.6 mph - N/A   Clear
7:55 AM 72.9 °F - 59.9 °F 64% 30.04 in 10.0 mi South 4.6 mph - N/A   Clear
8:15 AM 74.3 °F - 59.9 °F 61% 30.04 in 10.0 mi South 8.1 mph - N/A   Clear
8:35 AM 75.6 °F - 59.9 °F 58% 30.03 in 10.0 mi South 15.0 mph 20.7 mph N/A   Clear
8:55 AM 77.0 °F - 59.4 °F 54% 30.04 in 10.0 mi South 15.0 mph - N/A   Clear
9:15 AM 78.4 °F - 59.2 °F 51% 30.04 in 10.0 mi South 11.5 mph 20.7 mph N/A   Clear
9:35 AM 79.5 °F - 59.5 °F 50% 30.04 in 10.0 mi SSW 10.4 mph - N/A   Clear
9:55 AM 81.1 °F 81.5 °F 59.0 °F 47% 30.04 in 10.0 mi SSW 11.5 mph - N/A   Clear
10:15 AM 82.8 °F 82.7 °F 58.6 °F 44% 30.05 in 10.0 mi SSW 16.1 mph 20.7 mph N/A   Clear
10:35 AM 83.8 °F 83.4 °F 58.5 °F 42% 30.05 in 10.0 mi SSW 17.3 mph 21.9 mph N/A   Clear
10:55 AM 85.1 °F 84.6 °F 58.8 °F 41% 30.05 in 10.0 mi SSW 15.0 mph 21.9 mph N/A   Clear
11:15 AM 86.2 °F 85.2 °F 58.1 °F 38% 30.05 in 10.0 mi SSW 12.7 mph 19.6 mph N/A   Clear
11:35 AM 87.1 °F 86.1 °F 58.1 °F 37% 30.05 in 10.0 mi SSW 16.1 mph 19.6 mph N/A   Clear
11:55 AM 87.8 °F 86.7 °F 57.4 °F 36% 30.05 in 10.0 mi SSW 15.0 mph 24.2 mph N/A   Clear
12:15 PM 89.2 °F 88.2 °F 58.1 °F 35% 30.05 in 10.0 mi SSW 16.1 mph 21.9 mph N/A   Clear
12:35 PM 90.9 °F 89.2 °F 56.5 °F 31% 30.05 in 10.0 mi South 16.1 mph 21.9 mph N/A   Clear
12:55 PM 91.4 °F 89.9 °F 56.7 °F 31% 30.05 in 10.0 mi South 19.6 mph 24.2 mph N/A   Clear
1:15 PM 92.5 °F 90.4 °F 55.4 °F 28% 30.05 in 10.0 mi SSW 20.7 mph 26.5 mph N/A   Clear
1:35 PM 93.2 °F 91.0 °F 54.7 °F 27% 30.04 in 10.0 mi SSW 17.3 mph 26.5 mph N/A   Clear
1:55 PM 94.5 °F 92.3 °F 55.0 °F 26% 30.04 in 10.0 mi SSW 17.3 mph 29.9 mph N/A   Clear
2:15 PM 95.2 °F 93.0 °F 54.5 °F 25% 30.04 in 10.0 mi South 18.4 mph 25.3 mph N/A   Clear
2:35 PM 95.2 °F 93.0 °F 53.8 °F 25% 30.04 in 10.0 mi SSW 20.7 mph 27.6 mph N/A   Clear
2:55 PM 96.4 °F 94.3 °F 53.8 °F 24% 30.03 in 10.0 mi SSW 20.7 mph 26.5 mph N/A   Clear
3:15 PM 96.8 °F 94.7 °F 54.5 °F 24% 30.03 in 10.0 mi South 19.6 mph 25.3 mph N/A   Clear
3:35 PM 97.3 °F 94.8 °F 53.1 °F 22% 30.02 in 10.0 mi SSW 23.0 mph 27.6 mph N/A   Clear
3:55 PM 97.0 °F 94.6 °F 53.1 °F 23% 30.02 in 10.0 mi South 17.3 mph 25.3 mph N/A   Clear
4:15 PM 97.9 °F - 52.0 °F 21% 30.01 in 10.0 mi South 16.1 mph 23.0 mph N/A   Clear
4:35 PM 96.1 °F - 51.6 °F 22% 30.00 in 10.0 mi South 17.3 mph 24.2 mph N/A   Clear
4:55 PM 98.4 °F - 50.0 °F 19% 30.00 in 10.0 mi SSW 18.4 mph 26.5 mph N/A   Clear
5:15 PM 98.6 °F - 50.0 °F 19% 30.00 in 10.0 mi South 13.8 mph 21.9 mph N/A   Clear
5:35 PM 98.1 °F - 49.6 °F 19% 30.00 in 10.0 mi SSW 13.8 mph 20.7 mph N/A   Clear
5:55 PM 98.1 °F - 49.6 °F 19% 30.00 in 10.0 mi South 16.1 mph 20.7 mph N/A   Clear
6:15 PM 97.7 °F - 52.0 °F 21% 30.00 in 10.0 mi South 15.0 mph 20.7 mph N/A   Clear
6:35 PM 95.4 °F - 51.8 °F 23% 29.99 in 10.0 mi South 13.8 mph - N/A   Clear
6:55 PM 95.0 °F 92.7 °F 54.5 °F 25% 29.99 in 10.0 mi SSE 9.2 mph - N/A   Clear
7:15 PM 91.6 °F 89.8 °F 56.3 °F 30% 29.99 in 10.0 mi SSE 8.1 mph - N/A   Clear
7:35 PM 89.6 °F 87.7 °F 55.4 °F 31% 29.98 in 10.0 mi SSE 9.2 mph - N/A   Clear
7:55 PM 88.7 °F 86.9 °F 55.6 °F 32% 29.98 in 10.0 mi SSE 9.2 mph - N/A   Clear
8:15 PM 86.9 °F 85.6 °F 57.0 °F 36% 29.99 in 10.0 mi SSE 8.1 mph - N/A   Clear
8:35 PM 85.1 °F 84.6 °F 59.0 °F 41% 29.99 in 10.0 mi SSE 8.1 mph - N/A   Clear
8:55 PM 83.7 °F 83.4 °F 59.0 °F 43% 30.00 in 10.0 mi SSE 9.2 mph - N/A   Clear
9:15 PM 84.4 °F 83.4 °F 55.9 °F 38% 30.01 in 10.0 mi SSE 10.4 mph - N/A   Clear
9:35 PM 84.6 °F 83.4 °F 55.4 °F 37% 30.02 in 10.0 mi SSE 11.5 mph - N/A   Clear
9:55 PM 83.7 °F 82.7 °F 55.6 °F 38% 30.03 in 10.0 mi SSE 10.4 mph - N/A   Clear
10:15 PM 83.3 °F 82.3 °F 55.4 °F 38% 30.03 in 10.0 mi SSE 10.4 mph - N/A   Clear
10:35 PM 82.4 °F 81.8 °F 55.6 °F 40% 30.03 in 10.0 mi SSE 11.5 mph - N/A   Clear
10:55 PM 82.2 °F 81.6 °F 55.6 °F 40% 30.03 in 10.0 mi SSE 9.2 mph - N/A   Clear
11:15 PM 82.6 °F 81.8 °F 55.0 °F 39% 30.04 in 10.0 mi South 12.7 mph 19.6 mph N/A   Clear
11:35 PM 81.7 °F 81.2 °F 55.4 °F 40% 30.04 in 10.0 mi SSE 11.5 mph - N/A   Clear
11:55 PM 82.8 °F 81.7 °F 54.1 °F 37% 30.03 in 10.0 mi South 15.0 mph 18.4 mph N/A   Clear